Location: Endfield
(51.6667°N, 0.0667°W)
Time: 21:31:18
(UTC+00:00)

Meteor 2-4 Rocket - Pass Details

Date: 19 May 2024
Orbit: 798 x 907 km, 81.2° (Epoch: 14 June)

Event Time Altitude Azimuth Distance (km) Brightness Sun altitude
Exits shadow 23:42:31 23° 214° (SSW) 1,810 5.0 -18.2°
Maximum altitude 23:46:12 60° 287° (WNW) 1,028 4.2 -18.3°
Drops below altitude 10° 23:52:06 10° 8° (N) 2,605 7.5 -18.3°
Sets 23:54:37 0° 12° (NNE) 3,550 8.5 -18.3°
